AFR65DN LFPG-LFBZ

Flight info

Callsign AFR65DN
Flight time 1h 14m
Altitude 35000
Route AGOPA DCT ARKIP DCT ARMAL DCT ARTAX DCT BEBIX DCT LMG DCT UVELI DCT OSMOB DCT VAVIX DCT MAGEC
Aircraft E190/M-SDE3GILORVW/S

Departure

Time 2026-04-23 16:23
Airport Charles de Gaulle International Airport (LFPG)

Arrival

Time 2026-04-23 17:37
Airport Biarritz Pays Basque airport (LFBZ)
Time Latitude Longitude Altitude Speed Heading
2026-04-23 15:47 49.00365 2.59857 353 ft 0 kts 265°
2026-04-23 16:07 49.00366 2.59881 363 ft 4 kts 254°
2026-04-23 16:07 49.00378 2.59914 361 ft 4 kts 210°
2026-04-23 16:07 49.00395 2.59923 361 ft 0 kts 175°
2026-04-23 16:15 49.00394 2.59923 353 ft 1 kts 176°
2026-04-23 16:15 49.00385 2.59923 361 ft 4 kts 176°
2026-04-23 16:16 49.00340 2.59909 353 ft 9 kts 219°
2026-04-23 16:16 49.00322 2.59786 353 ft 14 kts 266°
2026-04-23 16:16 49.00302 2.59634 357 ft 15 kts 229°
2026-04-23 16:16 49.00202 2.59625 353 ft 15 kts 176°
2026-04-23 16:17 49.00089 2.59638 353 ft 17 kts 175°
2026-04-23 16:17 48.99989 2.59577 355 ft 17 kts 257°
2026-04-23 16:17 48.99979 2.59389 353 ft 18 kts 266°
2026-04-23 16:17 48.99969 2.59186 353 ft 20 kts 264°
2026-04-23 16:18 48.99957 2.58969 356 ft 22 kts 265°
2026-04-23 16:18 48.99944 2.58733 360 ft 23 kts 265°
2026-04-23 16:18 48.99931 2.58482 353 ft 24 kts 266°
2026-04-23 16:18 48.99918 2.58218 358 ft 26 kts 265°
2026-04-23 16:19 48.99903 2.57939 357 ft 27 kts 265°
2026-04-23 16:19 48.99888 2.57645 353 ft 29 kts 265°
2026-04-23 16:19 48.99872 2.57347 361 ft 18 kts 265°
2026-04-23 16:19 48.99862 2.57163 353 ft 18 kts 265°
2026-04-23 16:20 48.99852 2.56961 357 ft 20 kts 266°
2026-04-23 16:20 48.99839 2.56743 353 ft 21 kts 265°
2026-04-23 16:20 48.99750 2.56608 357 ft 14 kts 176°
2026-04-23 16:20 48.99741 2.56609 360 ft 0 kts 176°
2026-04-23 16:21 48.99740 2.56609 359 ft 1 kts 176°
2026-04-23 16:21 48.99715 2.56612 354 ft 6 kts 176°
2026-04-23 16:21 48.99660 2.56635 356 ft 10 kts 141°
2026-04-23 16:22 48.99648 2.56761 354 ft 18 kts 85°
2026-04-23 16:22 48.99676 2.57287 350 ft 84 kts 85°
2026-04-23 16:22 48.99754 2.58488 387 ft 138 kts 81°
2026-04-23 16:22 48.99901 2.60050 892 ft 161 kts 82°
2026-04-23 16:23 49.00033 2.61931 1367 ft 193 kts 84°
2026-04-23 16:23 49.00152 2.64052 1976 ft 207 kts 85°
2026-04-23 16:23 49.00211 2.66243 3034 ft 199 kts 88°
2026-04-23 16:23 49.00276 2.68392 3909 ft 207 kts 87°
2026-04-23 16:24 49.00372 2.70675 4583 ft 227 kts 86°
2026-04-23 16:24 49.00500 2.73146 5353 ft 241 kts 86°
2026-04-23 16:24 49.00634 2.75743 6244 ft 249 kts 86°
2026-04-23 16:24 49.00546 2.78402 7183 ft 253 kts 97°
2026-04-23 16:25 49.00305 2.81073 8054 ft 258 kts 98°
2026-04-23 16:25 49.00040 2.83805 8838 ft 264 kts 98°
2026-04-23 16:25 48.99766 2.86582 9721 ft 266 kts 98°
2026-04-23 16:25 48.99488 2.89402 10564 ft 271 kts 98°
2026-04-23 16:26 48.99193 2.92361 10915 ft 293 kts 98°
2026-04-23 16:26 48.98872 2.95485 11402 ft 306 kts 99°
2026-04-23 16:26 48.98122 2.98571 11995 ft 317 kts 121°
2026-04-23 16:26 48.96554 3.01006 12688 ft 330 kts 145°
2026-04-23 16:27 48.94419 3.02342 13618 ft 338 kts 166°
2026-04-23 16:27 48.92048 3.02421 14560 ft 347 kts 186°
2026-04-23 16:27 48.89783 3.01129 15535 ft 353 kts 209°
2026-04-23 16:27 48.87959 2.98608 16491 ft 359 kts 231°
2026-04-23 16:28 48.86869 2.95168 17333 ft 366 kts 251°
2026-04-23 16:28 48.86299 2.91378 18164 ft 372 kts 258°
2026-04-23 16:28 48.85882 2.87483 18954 ft 376 kts 259°
2026-04-23 16:28 48.85470 2.83540 19627 ft 381 kts 258°
2026-04-23 16:29 48.85059 2.79541 20278 ft 386 kts 259°
2026-04-23 16:29 48.84693 2.75530 20917 ft 390 kts 260°
2026-04-23 16:29 48.84372 2.71366 21550 ft 395 kts 261°
2026-04-23 16:29 48.84118 2.67242 22137 ft 399 kts 262°
2026-04-23 16:30 48.83758 2.63063 22700 ft 399 kts 251°
2026-04-23 16:30 48.82626 2.59272 23301 ft 395 kts 234°
2026-04-23 16:30 48.81067 2.55827 23889 ft 397 kts 231°
2026-04-23 16:30 48.79439 2.52427 24423 ft 400 kts 231°
2026-04-23 16:31 48.77799 2.48994 24966 ft 403 kts 231°
2026-04-23 16:31 48.76150 2.45531 25496 ft 407 kts 231°
2026-04-23 16:31 48.74486 2.42042 26010 ft 410 kts 231°
2026-04-23 16:31 48.72607 2.38804 26459 ft 410 kts 217°
2026-04-23 16:32 48.70254 2.36401 26955 ft 409 kts 208°
2026-04-23 16:32 48.67802 2.34202 27406 ft 412 kts 208°
2026-04-23 16:32 48.65317 2.31992 27848 ft 415 kts 208°
2026-04-23 16:32 48.62821 2.29756 28203 ft 421 kts 207°
2026-04-23 16:33 48.60277 2.27479 28460 ft 427 kts 209°
2026-04-23 16:33 48.57710 2.25171 28832 ft 430 kts 207°
2026-04-23 16:33 48.55140 2.22865 29344 ft 431 kts 208°
2026-04-23 16:33 48.52561 2.20558 29796 ft 433 kts 209°
2026-04-23 16:34 48.49953 2.18235 30035 ft 438 kts 209°
2026-04-23 16:34 48.47305 2.15908 30391 ft 441 kts 209°
2026-04-23 16:34 48.44639 2.13585 30631 ft 446 kts 211°
2026-04-23 16:34 48.41931 2.11217 30749 ft 453 kts 211°
2026-04-23 16:35 48.39192 2.08819 30974 ft 457 kts 213°
2026-04-23 16:35 48.36452 2.06421 31418 ft 455 kts 213°
2026-04-23 16:35 48.33720 2.04035 31930 ft 452 kts 212°
2026-04-23 16:35 48.30982 2.01729 32339 ft 452 kts 207°
2026-04-23 16:36 48.27961 2.00398 32649 ft 457 kts 186°
2026-04-23 16:36 48.24791 2.00291 33085 ft 455 kts 179°
2026-04-23 16:36 48.21629 2.00431 33446 ft 454 kts 179°
2026-04-23 16:36 48.18463 2.00584 33562 ft 459 kts 180°
2026-04-23 16:37 48.15259 2.00720 33758 ft 462 kts 180°
2026-04-23 16:37 48.12050 2.00832 34144 ft 460 kts 180°
2026-04-23 16:37 48.08854 2.00940 34508 ft 457 kts 180°
2026-04-23 16:37 48.05680 2.01071 34789 ft 457 kts 179°
2026-04-23 16:38 48.02505 2.01266 35061 ft 456 kts 179°
2026-04-23 16:38 47.99350 2.01460 35425 ft 449 kts 179°
2026-04-23 16:38 47.93075 2.01829 35349 ft 450 kts 179°
2026-04-23 16:39 47.86824 2.02183 35283 ft 449 kts 179°
2026-04-23 16:39 47.80586 2.02533 35281 ft 449 kts 179°
2026-04-23 16:40 47.74331 2.02887 35279 ft 452 kts 180°
2026-04-23 16:40 47.68034 2.03239 35270 ft 453 kts 180°
2026-04-23 16:41 47.61745 2.03591 35268 ft 452 kts 180°
2026-04-23 16:41 47.55446 2.03984 35265 ft 453 kts 180°
2026-04-23 16:42 47.49136 2.04378 35266 ft 454 kts 180°
2026-04-23 16:42 47.42831 2.04768 35258 ft 454 kts 180°
2026-04-23 16:43 47.36525 2.05157 35243 ft 454 kts 180°
2026-04-23 16:43 47.30273 2.04469 35277 ft 450 kts 193°
2026-04-23 16:44 47.24116 2.02847 35240 ft 449 kts 194°
2026-04-23 16:44 47.17963 2.01274 35239 ft 449 kts 193°
2026-04-23 16:45 47.11797 1.99729 35243 ft 450 kts 194°
2026-04-23 16:45 47.05615 1.98193 35236 ft 450 kts 194°
2026-04-23 16:46 46.99444 1.96660 35230 ft 450 kts 194°
2026-04-23 16:46 46.93267 1.95129 35233 ft 451 kts 194°
2026-04-23 16:47 46.87104 1.93606 35229 ft 452 kts 194°
2026-04-23 16:47 46.80908 1.92079 35229 ft 452 kts 194°
2026-04-23 16:48 46.74713 1.90555 35210 ft 452 kts 194°
2026-04-23 16:48 46.68518 1.89033 35219 ft 452 kts 194°
2026-04-23 16:49 46.62317 1.87516 35227 ft 452 kts 194°
2026-04-23 16:49 46.56124 1.86003 35218 ft 452 kts 194°
2026-04-23 16:50 46.49924 1.84492 35207 ft 452 kts 194°
2026-04-23 16:50 46.43721 1.82983 35208 ft 452 kts 194°
2026-04-23 16:51 46.37520 1.81478 35204 ft 452 kts 194°
2026-04-23 16:51 46.31323 1.79980 35198 ft 452 kts 194°
2026-04-23 16:52 46.25313 1.77745 35210 ft 438 kts 214°
2026-04-23 16:52 46.22871 1.75251 35239 ft 427 kts 227°
2026-04-23 16:52 46.20640 1.72421 35218 ft 427 kts 229°
2026-04-23 16:53 46.16963 1.67676 35184 ft 427 kts 228°
2026-04-23 16:53 46.12501 1.62034 35185 ft 427 kts 228°
2026-04-23 16:54 46.08022 1.56415 35168 ft 426 kts 227°
2026-04-23 16:54 46.03544 1.50818 35178 ft 426 kts 227°
2026-04-23 16:55 45.99063 1.45228 35180 ft 426 kts 227°
2026-04-23 16:55 45.94809 1.39385 35210 ft 416 kts 240°
2026-04-23 16:56 45.92067 1.32194 35168 ft 410 kts 249°
2026-04-23 16:56 45.89513 1.24896 35182 ft 409 kts 249°
2026-04-23 16:57 45.86938 1.17618 35163 ft 409 kts 248°
2026-04-23 16:57 45.84360 1.10373 35182 ft 408 kts 248°
2026-04-23 16:58 45.81613 1.03238 35202 ft 414 kts 238°
2026-04-23 16:58 45.79609 1.00202 35211 ft 422 kts 227°
2026-04-23 16:58 45.77375 0.97449 35193 ft 425 kts 225°
2026-04-23 16:59 45.72847 0.92051 35169 ft 423 kts 225°
2026-04-23 16:59 45.68332 0.86652 35167 ft 423 kts 225°
2026-04-23 17:00 45.63815 0.81251 35163 ft 423 kts 225°
2026-04-23 17:00 45.59306 0.75866 35177 ft 421 kts 225°
2026-04-23 17:01 45.54811 0.70512 35169 ft 420 kts 225°
2026-04-23 17:01 45.50318 0.65170 35168 ft 420 kts 224°
2026-04-23 17:02 45.45852 0.59872 35166 ft 420 kts 224°
2026-04-23 17:02 45.41356 0.54549 35164 ft 420 kts 224°
2026-04-23 17:03 45.36860 0.49239 35164 ft 419 kts 224°
2026-04-23 17:03 45.32364 0.43941 35162 ft 420 kts 224°
2026-04-23 17:04 45.27870 0.38656 35156 ft 420 kts 224°
2026-04-23 17:04 45.23391 0.33397 35159 ft 417 kts 224°
2026-04-23 17:05 45.18908 0.28146 35142 ft 417 kts 224°
2026-04-23 17:05 45.14440 0.22923 35142 ft 416 kts 224°
2026-04-23 17:06 45.09965 0.17706 35145 ft 417 kts 224°
2026-04-23 17:06 45.05489 0.12494 35147 ft 417 kts 224°
2026-04-23 17:07 45.01004 0.07311 35136 ft 417 kts 223°
2026-04-23 17:07 44.96509 0.02159 35136 ft 415 kts 223°
2026-04-23 17:08 44.92026 -0.02974 35063 ft 415 kts 223°
2026-04-23 17:08 44.89771 -0.05557 34685 ft 416 kts 223°
2026-04-23 17:08 44.87533 -0.08114 34386 ft 416 kts 223°
2026-04-23 17:09 44.85271 -0.10700 33715 ft 419 kts 223°
2026-04-23 17:09 44.83013 -0.13276 33180 ft 417 kts 223°
2026-04-23 17:09 44.80756 -0.15847 32620 ft 417 kts 223°
2026-04-23 17:09 44.78494 -0.18424 32051 ft 419 kts 223°
2026-04-23 17:10 44.76222 -0.21009 31503 ft 420 kts 223°
2026-04-23 17:10 44.73949 -0.23594 30922 ft 422 kts 223°
2026-04-23 17:10 44.71689 -0.26159 30383 ft 423 kts 223°
2026-04-23 17:10 44.69394 -0.28761 29781 ft 424 kts 223°
2026-04-23 17:11 44.67100 -0.31359 29244 ft 425 kts 223°
2026-04-23 17:11 44.64792 -0.33972 28687 ft 426 kts 223°
2026-04-23 17:11 44.62417 -0.36459 28112 ft 425 kts 218°
2026-04-23 17:11 44.59965 -0.38752 27546 ft 422 kts 217°
2026-04-23 17:12 44.57529 -0.41025 26993 ft 418 kts 218°
2026-04-23 17:12 44.55129 -0.43300 26440 ft 414 kts 218°
2026-04-23 17:12 44.52759 -0.45569 25891 ft 411 kts 218°
2026-04-23 17:12 44.50410 -0.47825 25344 ft 409 kts 218°
2026-04-23 17:13 44.48071 -0.50075 24807 ft 406 kts 218°
2026-04-23 17:13 44.45760 -0.52307 24227 ft 398 kts 218°
2026-04-23 17:13 44.43535 -0.54445 23738 ft 377 kts 218°
2026-04-23 17:13 44.41434 -0.56453 23170 ft 354 kts 219°
2026-04-23 17:14 44.39462 -0.58336 22751 ft 332 kts 219°
2026-04-23 17:14 44.37607 -0.60109 22332 ft 315 kts 219°
2026-04-23 17:14 44.35844 -0.61793 21941 ft 300 kts 219°
2026-04-23 17:14 44.34157 -0.63406 21551 ft 287 kts 219°
2026-04-23 17:15 44.32539 -0.64952 21182 ft 277 kts 219°
2026-04-23 17:15 44.30977 -0.66443 20822 ft 267 kts 219°
2026-04-23 17:15 44.29465 -0.67886 20466 ft 259 kts 218°
2026-04-23 17:15 44.28000 -0.69281 20134 ft 252 kts 219°
2026-04-23 17:16 44.26565 -0.70653 19682 ft 250 kts 218°
2026-04-23 17:16 44.25146 -0.72009 19375 ft 243 kts 219°
2026-04-23 17:16 44.23773 -0.73321 19068 ft 237 kts 218°
2026-04-23 17:16 44.22423 -0.74606 18754 ft 234 kts 219°
2026-04-23 17:17 44.20984 -0.75994 18467 ft 271 kts 217°
2026-04-23 17:17 44.19329 -0.77589 18092 ft 306 kts 217°
2026-04-23 17:17 44.18128 -0.78738 17813 ft 327 kts 216°
2026-04-23 17:17 44.15636 -0.81102 17163 ft 312 kts 217°
2026-04-23 17:18 44.12207 -0.84345 16339 ft 291 kts 216°
2026-04-23 17:18 44.10549 -0.85918 16021 ft 286 kts 216°
2026-04-23 17:18 44.08914 -0.87468 15650 ft 283 kts 217°
2026-04-23 17:19 44.07293 -0.89006 15276 ft 281 kts 218°
2026-04-23 17:19 44.05686 -0.90532 14907 ft 279 kts 217°
2026-04-23 17:19 44.04109 -0.92029 14542 ft 277 kts 217°
2026-04-23 17:19 44.02523 -0.93532 14194 ft 275 kts 216°
2026-04-23 17:20 44.00945 -0.95026 13810 ft 274 kts 217°
2026-04-23 17:20 43.97838 -0.97963 13111 ft 266 kts 216°
2026-04-23 17:21 43.94805 -1.00828 12408 ft 260 kts 216°
2026-04-23 17:21 43.93310 -1.02239 12067 ft 258 kts 215°
2026-04-23 17:21 43.90359 -1.05015 11387 ft 254 kts 214°
2026-04-23 17:22 43.88908 -1.06381 11064 ft 251 kts 214°
2026-04-23 17:22 43.86024 -1.09090 10406 ft 248 kts 213°
2026-04-23 17:23 43.83171 -1.11768 9737 ft 246 kts 212°
2026-04-23 17:23 43.81764 -1.13088 9404 ft 244 kts 213°
2026-04-23 17:23 43.78987 -1.15696 8774 ft 240 kts 213°
2026-04-23 17:24 43.77605 -1.16990 8461 ft 238 kts 213°
2026-04-23 17:24 43.76241 -1.18268 8179 ft 236 kts 212°
2026-04-23 17:24 43.74262 -1.21785 7615 ft 236 kts 245°
2026-04-23 17:25 43.73143 -1.26057 7068 ft 235 kts 246°
2026-04-23 17:25 43.72592 -1.28188 6755 ft 236 kts 246°
2026-04-23 17:26 43.71485 -1.32459 6155 ft 237 kts 247°
2026-04-23 17:26 43.70380 -1.36671 5660 ft 230 kts 246°
2026-04-23 17:27 43.69296 -1.40777 5203 ft 223 kts 246°
2026-04-23 17:27 43.68748 -1.42763 5131 ft 218 kts 242°
2026-04-23 17:27 43.68038 -1.44600 5145 ft 218 kts 236°
2026-04-23 17:27 43.67245 -1.46422 5063 ft 223 kts 236°
2026-04-23 17:28 43.66488 -1.48239 5036 ft 220 kts 237°
2026-04-23 17:28 43.65740 -1.50094 5034 ft 222 kts 238°
2026-04-23 17:28 43.64996 -1.51966 5040 ft 223 kts 238°
2026-04-23 17:28 43.64256 -1.53836 5037 ft 221 kts 237°
2026-04-23 17:29 43.63517 -1.55698 4780 ft 226 kts 237°
2026-04-23 17:29 43.62725 -1.57685 4148 ft 241 kts 237°
2026-04-23 17:29 43.61000 -1.61302 4019 ft 209 kts 227°
2026-04-23 17:30 43.60406 -1.62329 3957 ft 197 kts 227°
2026-04-23 17:30 43.58584 -1.65590 3866 ft 179 kts 228°
2026-04-23 17:30 43.57847 -1.66946 3854 ft 176 kts 229°
2026-04-23 17:31 43.57117 -1.68301 3811 ft 177 kts 229°
2026-04-23 17:31 43.56381 -1.69668 3750 ft 178 kts 229°
2026-04-23 17:31 43.55644 -1.71042 3662 ft 178 kts 229°
2026-04-23 17:31 43.54911 -1.72409 3583 ft 177 kts 228°
2026-04-23 17:32 43.53965 -1.73389 3474 ft 171 kts 192°
2026-04-23 17:32 43.52790 -1.73409 3464 ft 169 kts 177°
2026-04-23 17:32 43.51613 -1.73375 3476 ft 170 kts 179°
2026-04-23 17:32 43.50431 -1.73338 3463 ft 169 kts 179°
2026-04-23 17:33 43.49254 -1.73311 3467 ft 169 kts 179°
2026-04-23 17:33 43.48079 -1.73195 3463 ft 170 kts 163°
2026-04-23 17:33 43.47164 -1.72243 3538 ft 160 kts 135°
2026-04-23 17:33 43.46431 -1.71163 3617 ft 151 kts 138°
2026-04-23 17:34 43.45783 -1.70034 3577 ft 156 kts 117°
2026-04-23 17:34 43.45714 -1.68523 3339 ft 166 kts 86°
2026-04-23 17:34 43.46511 -1.65593 2717 ft 162 kts 76°
2026-04-23 17:35 43.46774 -1.64135 2344 ft 153 kts 89°
2026-04-23 17:35 43.46735 -1.61993 1984 ft 131 kts 98°
2026-04-23 17:35 43.46756 -1.60352 1615 ft 127 kts 91°
2026-04-23 17:36 43.46780 -1.59144 1338 ft 126 kts 92°
2026-04-23 17:36 43.46778 -1.57941 1062 ft 129 kts 91°
2026-04-23 17:36 43.46781 -1.56743 821 ft 125 kts 85°
2026-04-23 17:36 43.46796 -1.55562 591 ft 120 kts 87°
2026-04-23 17:37 43.46813 -1.54400 422 ft 119 kts 85°
2026-04-23 17:37 43.46827 -1.53258 269 ft 119 kts 85°
2026-04-23 17:37 43.46845 -1.51686 234 ft 39 kts 88°
2026-04-23 17:38 43.46852 -1.51321 233 ft 36 kts 89°
2026-04-23 17:38 43.46861 -1.51056 236 ft 17 kts 67°
2026-04-23 17:38 43.46867 -1.50965 239 ft 7 kts 170°
2026-04-23 17:38 43.46852 -1.51022 236 ft 8 kts 269°
2026-04-23 17:39 43.46850 -1.51117 238 ft 12 kts 269°
2026-04-23 17:39 43.46851 -1.51249 237 ft 16 kts 270°
2026-04-23 17:39 43.46852 -1.51409 238 ft 18 kts 270°
2026-04-23 17:39 43.46848 -1.51589 234 ft 20 kts 268°
2026-04-23 17:40 43.46845 -1.51724 235 ft 22 kts 268°
2026-04-23 17:40 43.46843 -1.51944 238 ft 23 kts 270°
2026-04-23 17:40 43.46857 -1.52150 238 ft 17 kts 309°
2026-04-23 17:40 43.46969 -1.52189 239 ft 16 kts 331°
2026-04-23 17:41 43.46998 -1.52306 242 ft 10 kts 270°
2026-04-23 17:41 43.46995 -1.52523 244 ft 13 kts 269°
2026-04-23 17:41 43.46993 -1.52656 244 ft 15 kts 269°
2026-04-23 17:42 43.47042 -1.52903 244 ft 11 kts 312°
2026-04-23 17:42 43.47054 -1.52999 244 ft 11 kts 269°
2026-04-23 17:42 43.47103 -1.53052 244 ft 7 kts 344°
2026-04-23 17:43 43.47111 -1.53055 244 ft 2 kts 345°
2026-04-23 17:43 43.47126 -1.53060 244 ft 0 kts 345°
2026-04-23 17:43 43.47134 -1.53063 244 ft 2 kts 345°
2026-04-23 17:43 43.47136 -1.53064 244 ft 0 kts 345°